Temp
21 21 22 22 22 22 22 23 23 23 23 23 24 24 24 24 24 25 25 24 24 24 24 23 23 23 23 24 23 23 23 23 23 23 22 20 20 21 22 22 22 22 23 24 24 24 25 25 26 27 26 25 25 25 24 24 24 23 24 24 23 25 25 26 27 26 26 26 26 26 25 25 24 24 25 25 24 24 23 23 22 20 19 19 18 18 18 18
21 21 21 22 22 22 22 23 23 23 23 23 24 24 24 25 25 25 24 24 24 23 23 23 23 23 23 24 23 23 23 23 24 22 21 21 21 21 22 22 22 22 23 23 23 24 25 25 25 26 26 26 25 25 24 24 24 24 25 24 24 25 25 26 27 26 26 25 25 25 25 25 24 24 24 24 23 23 22 21 21 19 18 18 18 18 17 17
21 21 21 22 22 22 23 23 23 23 23 23 24 24 25 25 25 25 25 25 24 23 23 23 24 23 23 24 23 24 23 23 24 22 21 21 21 21 22 22 22 22 22 22 23 23 24 24 25 26 26 26 26 25 24 24 24 24 24 24 24 25 26 26 26 26 26 24 24 24 25 25 24 24 24 23 22 21 20 20 19 18 17 17 17 17 17 17
21 21 21 22 22 22 23 23 23 23 23 24 24 24 24 25 25 25 25 25 24 24 23 23 24 23 24 23 23 23 23 23 24 22 21 21 22 22 22 22 22 22 22 22 23 23 24 25 26 26 25 25 26 26 25 24 24 24 24 24 25 25 26 25 25 26 25 24 23 24 24 24 24 24 24 23 22 20 20 19 18 17 17 17 16 16 16 16
21 21 21 22 22 22 22 23 23 23 24 24 24 24 24 25 25 25 25 25 25 24 24 23 23 24 24 23 23 23 23 24 23 21 21 22 22 22 22 22 23 23 23 23 23 24 25 26 26 26 25 25 26 26 25 24 23 24 25 25 25 25 25 25 25 25 24 23 23 24 24 23 24 24 23 22 21 20 19 18 18 18 17 17 16 16 15 15
21 21 21 22 22 22 22 23 23 23 24 24 24 24 24 25 25 25 25 25 25 25 24 24 23 24 23 23 24 23 23 23 22 21 21 22 22 22 23 23 23 23 23 23 24 25 25 26 26 26 25 26 26 26 25 24 23 24 25 25 24 24 25 24 25 24 23 23 23 23 23 23 23 23 22 22 20 19 19 18 18 18 17 17 16 15 15 15
20 21 21 21 22 22 22 23 23 24 24 24 24 24 25 25 25 25 25 25 25 25 24 24 24 24 23 23 23 23 23 22 21 20 21 22 22 23 23 23 23 23 23 24 24 24 24 25 26 25 24 25 25 25 25 25 24 23 24 25 24 24 25 24 24 24 23 23 23 24 23 23 23 22 22 21 19 19 18 18 18 17 17 17 16 15 14 14
20 21 21 21 22 22 22 23 23 23 24 24 24 24 25 25 25 25 25 25 24 25 25 24 24 24 24 23 22 24 24 21 20 21 21 22 22 23 23 23 23 23 24 24 23 23 23 24 25 24 24 25 24 25 25 24 24 24 24 24 23 23 24 24 24 23 23 23 23 23 23 23 23 22 21 20 19 18 18 18 17 17 17 16 16 15 14 14
20 20 21 21 21 22 22 22 23 23 24 24 24 24 25 25 25 25 25 25 24 24 24 24 24 24 24 23 23 25 23 20 20 21 21 22 22 22 22 22 23 23 23 24 23 23 23 23 23 22 23 24 23 24 25 23 24 24 24 24 24 24 24 24 23 23 23 23 23 23 23 23 23 22 20 19 19 18 18 18 17 17 16 15 15 15 14 13
20 20 20 21 21 22 22 22 23 23 24 24 24 24 25 25 25 25 25 24 24 24 24 24 24 24 24 23 24 25 22 20 20 20 21 22 22 22 22 22 22 22 22 23 22 22 22 21 21 21 21 22 23 24 24 23 23 23 23 23 23 24 24 24 23 23 23 23 22 22 22 22 23 22 20 19 19 18 18 17 17 16 16 15 15 14 14 13
20 20 20 21 21 21 22 22 22 23 23 24 24 24 24 25 25 25 25 24 24 24 24 24 24 24 23 23 25 24 21 20 20 20 21 22 22 22 22 21 22 21 21 22 21 20 20 20 20 20 21 22 23 24 24 23 23 23 23 22 22 23 24 23 23 23 22 22 22 21 21 22 22 21 20 19 18 18 17 17 16 16 15 15 14 14 13 13
20 20 20 20 21 21 21 22 22 23 23 23 24 24 24 25 25 25 25 24 24 25 24 24 24 24 23 24 24 22 21 20 20 21 21 21 22 21 21 21 21 21 20 21 20 20 20 19 19 20 22 22 23 24 23 22 22 23 22 22 23 23 23 23 23 23 22 22 22 21 21 21 21 21 20 19 18 18 17 16 16 15 15 15 14 14 13 13
19 20 20 20 21 21 21 22 22 22 23 23 24 24 24 25 25 25 25 24 24 25 24 24 25 24 24 24 22 21 21 21 20 21 21 21 21 21 21 20 21 21 20 20 20 19 19 19 19 20 21 22 23 23 22 22 22 22 22 22 22 22 21 22 23 23 22 22 22 21 20 21 22 21 19 19 18 17 16 16 15 15 15 14 14 14 13 13
19 19 20 20 21 21 21 21 22 22 23 23 24 24 25 25 25 25 24 24 25 25 24 24 25 24 24 23 22 21 21 21 21 21 21 22 22 21 20 20 20 21 21 19 19 20 19 18 18 19 20 21 22 22 21 22 22 22 23 22 22 21 21 23 23 23 22 21 22 21 20 21 22 20 19 19 18 17 16 15 15 15 14 14 14 13 13 13
19 19 20 20 20 21 21 21 22 22 22 23 24 24 25 25 25 25 24 25 25 25 24 24 25 24 24 23 22 22 22 21 21 21 21 22 21 21 20 21 21 21 20 19 19 19 19 18 19 20 21 22 22 21 22 22 21 23 23 21 22 22 21 22 23 22 21 21 22 21 20 21 21 19 19 18 18 17 15 15 15 15 14 14 13 13 13 13
19 19 19 20 20 20 21 21 21 22 22 23 23 24 25 25 25 24 24 24 25 25 24 25 25 24 24 23 22 22 22 21 21 21 21 21 20 20 20 21 21 21 20 20 19 19 19 19 19 20 21 22 22 22 23 22 21 23 22 21 22 22 21 22 22 22 21 21 22 22 20 21 20 18 18 18 17 16 15 15 15 14 14 13 13 13 13 13
19 19 19 19 20 20 20 21 21 22 22 23 23 25 25 25 25 24 24 24 24 24 24 24 25 24 24 23 22 22 21 20 21 21 21 21 21 20 20 20 22 21 20 20 19 19 19 19 20 21 21 21 23 23 22 21 21 22 22 21 22 22 22 21 21 21 21 21 21 21 21 21 20 18 18 17 17 16 15 14 14 14 13 13 13 12 12 12
18 18 19 19 20 20 20 21 21 21 22 23 23 24 25 25 24 23 23 24 24 24 24 24 24 24 23 22 22 21 20 20 20 21 20 21 21 21 20 20 21 21 21 21 20 20 21 21 22 22 22 22 23 23 21 20 20 21 21 21 21 21 21 21 21 21 21 21 20 20 20 21 20 17 17 17 17 16 14 14 14 13 13 12 12 12 12 12
18 18 18 19 19 20 20 20 21 21 22 22 23 25 25 24 23 23 22 23 24 24 24 23 23 23 22 21 21 20 20 20 20 21 20 21 21 21 20 20 20 20 21 22 22 22 22 22 22 22 22 22 22 21 21 21 21 20 20 20 20 20 20 21 22 20 20 20 20 20 20 21 20 18 17 17 16 15 14 14 13 13 13 12 12 12 12 12
17 17 18 18 19 20 20 20 21 21 21 22 23 24 24 22 23 24 21 21 22 22 22 22 21 21 21 20 20 20 20 20 20 21 21 21 21 20 21 21 21 21 22 23 22 22 22 21 22 21 21 21 21 21 21 21 21 20 20 20 19 20 20 21 22 20 20 20 19 20 20 20 21 19 16 16 16 14 14 13 13 12 12 12 12 11 12 12
17 17 17 18 19 19 20 20 21 21 21 22 22 22 20 19 21 21 18 19 20 19 20 20 19 19 20 19 19 19 19 20 21 21 21 21 20 21 22 23 23 22 23 23 22 22 21 21 21 20 20 20 20 20 20 20 20 20 20 20 20 20 20 21 22 20 20 19 18 20 19 19 21 19 16 16 15 14 14 13 12 12 12 12 12 11 12 12
16 17 17 18 18 19 20 20 20 20 21 21 21 19 16 15 16 16 15 18 19 17 18 18 17 19 19 19 19 18 18 21 21 20 21 21 22 22 22 22 22 22 22 23 23 22 21 21 20 19 19 19 20 20 20 19 19 19 19 19 19 20 20 21 21 20 20 19 18 19 19 19 20 19 16 15 15 14 14 13 12 12 12 12 12 12 12 12
16 16 17 17 18 19 19 20 20 20 20 20 18 15 14 14 14 14 14 17 18 18 18 18 18 20 19 19 18 18 19 22 21 20 19 20 22 21 20 22 21 21 22 22 21 20 20 21 20 19 19 19 19 20 19 19 19 19 19 19 19 20 19 19 20 19 19 19 18 18 18 18 19 17 16 15 14 13 13 12 12 12 12 12 12 12 12 11
16 16 17 18 18 19 19 19 19 19 18 17 16 14 14 14 14 13 14 18 20 19 18 18 18 20 20 19 18 19 20 21 21 20 19 20 21 20 20 21 20 21 22 21 20 20 20 20 18 18 19 18 19 19 19 19 19 20 20 19 19 19 18 18 18 18 18 18 18 18 17 17 18 15 15 14 13 13 12 12 12 12 12 12 12 12 12 11
15 15 17 17 18 19 19 19 19 18 17 15 14 14 14 14 14 13 15 19 21 19 18 18 18 19 19 19 19 19 20 20 20 19 18 19 20 20 21 20 20 21 22 20 20 20 20 19 17 18 18 18 18 18 19 19 18 19 19 17 17 17 17 17 17 16 16 16 18 18 16 17 17 15 14 13 12 12 12 12 12 12 12 12 12 12 11 11
14 15 16 17 18 19 19 18 18 17 17 14 13 14 14 14 14 13 16 20 21 20 19 18 19 19 19 19 19 19 20 20 18 18 18 17 18 19 20 21 21 21 20 20 19 19 19 18 17 17 17 17 18 17 18 18 17 17 16 15 15 16 16 16 16 16 15 16 18 18 16 15 16 15 14 13 12 12 12 12 12 12 12 12 12 11 11 11
13 14 15 16 18 19 19 18 17 18 17 14 14 15 14 14 13 13 17 20 20 21 20 18 19 19 19 19 19 19 21 20 18 18 17 17 18 19 19 20 21 21 20 19 19 19 19 17 17 17 17 17 17 17 18 17 17 17 15 15 15 15 15 16 16 15 15 16 17 18 17 15 15 16 15 13 12 13 12 12 12 12 12 12 11 11 11 11
12 14 15 16 17 18 18 17 16 16 16 15 15 15 14 14 13 15 19 20 21 22 20 19 18 18 19 19 18 20 21 21 20 19 17 16 18 18 19 20 20 20 20 19 18 18 19 17 17 17 17 17 17 16 16 16 17 16 14 14 15 15 15 15 15 15 15 15 15 16 17 15 15 17 15 13 13 12 12 12 12 12 12 11 11 11 11 10
12 13 14 15 16 16 16 16 15 15 16 16 15 15 14 13 13 17 20 20 22 22 20 19 18 18 19 19 19 20 20 21 21 18 16 17 17 18 19 19 18 19 19 19 18 18 18 17 16 16 16 16 16 15 15 16 16 15 14 15 15 15 15 15 15 14 15 15 14 15 17 15 15 15 13 13 13 12 12 12 12 12 11 11 11 10 10 10
11 12 13 15 15 15 16 15 15 16 16 15 15 14 13 13 16 20 19 20 22 21 20 20 19 19 20 20 21 21 20 21 21 18 17 18 18 18 18 17 17 18 18 18 17 17 17 15 15 16 16 16 15 14 14 15 15 15 15 15 15 15 15 15 14 15 14 14 14 15 16 16 14 14 13 13 14 13 13 13 12 11 11 10 10 10 10 9
10 11 12 14 14 15 15 14 15 16 16 15 15 14 14 16 19 20 19 20 21 20 20 20 19 20 20 20 21 20 20 21 21 19 19 19 18 18 18 17 17 17 16 17 16 16 16 15 15 15 14 15 14 14 14 14 14 14 14 15 14 15 16 15 15 15 14 13 14 14 15 15 14 14 14 13 14 14 13 12 11 11 10 10 10 10 9 9
10 10 11 13 14 14 15 14 15 16 15 15 14 14 17 19 19 19 20 22 21 20 20 20 19 20 19 19 19 19 20 20 21 20 19 18 18 18 18 18 18 17 17 17 16 16 16 15 15 14 13 14 14 14 14 13 14 14 14 15 14 15 15 15 15 15 14 14 14 13 13 14 14 15 16 14 13 13 12 12 11 10 10 10 9 9 9 9
10 10 11 12 13 13 14 15 15 16 15 14 14 16 18 18 18 20 21 22 21 20 20 19 19 19 18 18 19 19 18 19 20 19 18 17 17 17 18 17 18 18 17 17 16 16 16 14 14 14 14 14 14 15 15 14 14 14 14 15 15 15 14 14 14 15 15 14 14 13 13 13 13 15 16 14 12 12 11 11 11 10 10 9 9 9 9 8
10 10 11 12 12 13 14 14 15 15 14 14 16 18 18 17 19 20 21 22 20 19 19 18 18 18 18 18 19 19 18 18 19 18 17 16 15 16 17 16 16 17 16 16 16 16 16 16 14 14 14 14 13 15 15 14 14 14 15 15 15 15 15 14 14 14 14 13 13 13 13 13 13 14 14 13 12 11 11 11 11 10 10 10 9 9 8 8
10 10 10 11 12 12 13 14 15 14 13 15 17 18 16 17 19 20 21 22 20 19 18 18 18 18 18 18 18 19 18 18 18 16 16 16 16 16 18 17 15 16 16 16 17 16 16 17 14 12 13 13 13 14 14 14 14 14 14 14 13 14 15 14 14 13 12 11 12 13 13 14 14 13 12 12 11 11 11 11 11 10 10 10 9 8 8 8
10 10 11 11 11 13 13 14 14 13 13 16 17 16 17 18 20 20 21 21 20 20 19 18 18 18 18 18 18 17 17 17 17 16 16 16 16 17 18 17 15 15 16 17 17 17 17 16 12 11 13 12 12 13 13 14 15 13 13 13 13 13 14 14 13 12 11 11 11 12 12 13 14 12 11 11 11 11 11 11 10 10 9 9 8 8 8 7
10 10 11 11 11 12 13 14 14 12 14 16 16 16 18 19 20 21 21 20 19 20 19 18 18 18 19 19 18 17 16 16 16 16 16 17 17 17 17 17 15 15 16 16 17 17 16 15 12 11 13 12 11 12 12 13 13 13 13 13 12 12 13 13 11 10 10 10 11 12 11 12 13 12 10 11 11 11 11 11 10 9 9 8 8 8 7 7
10 10 11 11 12 12 12 13 13 12 14 15 15 16 18 19 20 21 20 19 19 19 19 18 18 19 19 19 19 17 15 16 16 15 16 17 17 17 17 16 14 14 14 15 15 16 15 15 12 10 11 11 11 12 12 12 12 12 12 12 12 12 12 12 10 10 10 10 11 12 12 12 12 12 10 10 11 11 11 10 9 9 8 8 8 7 7 7
9 10 11 11 11 11 11 12 12 13 14 14 14 16 17 18 19 20 20 19 19 18 18 18 18 19 19 19 19 17 15 16 17 16 16 17 17 17 17 16 14 12 12 13 14 15 14 15 13 9 9 11 11 11 12 12 11 11 11 12 12 12 11 11 10 10 11 10 10 11 11 11 13 13 12 11 11 11 10 9 9 9 8 8 7 7 7 6
9 11 11 10 9 10 10 11 12 13 14 14 14 16 17 18 19 20 20 19 19 18 18 18 18 18 18 18 19 18 16 16 17 17 17 17 18 17 16 16 14 11 11 12 13 13 14 14 13 10 9 10 11 11 12 12 11 10 10 11 11 11 12 11 10 10 11 10 10 10 10 11 12 13 12 12 11 10 9 9 9 8 8 8 7 7 6 6
10 10 10 9 8 9 10 11 12 13 13 13 15 16 17 18 18 19 20 19 19 19 19 18 18 18 18 18 18 18 17 17 16 16 17 17 17 17 16 15 13 11 11 11 12 12 13 13 13 11 10 10 11 11 11 12 11 11 11 11 11 11 11 10 10 10 9 9 10 9 9 10 12 12 12 11 11 10 10 9 9 8 8 7 7 7 6 6
10 10 10 9 8 9 11 12 12 13 13 13 15 16 16 18 18 18 19 19 18 18 19 18 18 18 17 17 17 18 17 17 16 16 16 16 17 17 15 13 12 11 11 11 11 11 12 12 11 12 12 12 11 10 9 10 10 10 11 11 12 11 10 10 9 9 9 9 9 9 8 10 11 12 12 12 11 10 10 10 9 8 7 7 7 6 6 6
10 10 9 8 8 9 11 12 13 13 13 14 15 16 17 17 17 17 18 17 17 17 17 17 17 17 17 17 17 17 17 16 16 16 16 17 16 14 13 12 11 11 12 12 11 11 11 11 11 11 11 11 10 9 9 9 9 9 10 11 11 11 11 10 10 9 8 8 9 8 7 9 11 12 12 12 11 10 10 10 9 7 7 7 6 6 6 5
10 10 9 7 7 8 10 12 13 13 13 14 15 16 16 17 17 17 17 17 16 16 16 16 17 17 17 17 17 16 16 16 16 16 16 17 15 10 10 12 11 12 12 11 11 12 12 12 11 9 10 11 10 10 9 9 8 9 10 10 10 11 11 10 9 8 7 8 8 7 7 9 10 10 11 11 10 10 10 10 8 7 7 6 6 5 5 5
11 11 9 8 7 8 10 12 13 14 14 14 14 15 15 16 16 17 17 17 17 17 16 16 17 17 16 16 16 16 16 16 16 16 15 16 12 7 8 10 10 10 10 8 10 12 12 11 11 10 10 11 12 12 10 9 9 9 10 10 10 10 10 9 8 8 7 8 9 7 7 9 10 10 10 10 10 10 10 10 8 7 7 6 5 5 5 4
10 10 9 8 7 8 9 10 11 13 14 14 14 15 15 15 16 17 16 16 17 17 17 16 16 16 16 15 15 15 15 15 15 15 15 14 10 7 6 7 7 8 7 7 9 10 10 9 9 10 11 11 12 12 10 10 9 9 9 9 10 10 10 9 8 7 7 8 8 8 8 8 9 10 10 10 10 10 10 9 7 6 6 5 5 5 4 4
10 11 10 9 8 8 8 9 10 11 13 14 14 15 15 15 15 16 15 16 16 17 16 16 16 15 14 14 14 14 14 14 14 14 14 14 9 5 5 6 6 6 7 7 8 9 8 7 8 9 10 11 12 11 10 10 9 9 9 9 9 9 9 8 7 8 8 7 7 8 9 8 8 9 9 9 9 9 9 8 6 6 6 5 5 4 4 4
10 11 12 12 11 10 8 9 10 10 12 13 14 14 15 14 15 15 15 15 16 16 15 15 15 15 15 15 14 14 14 14 13 13 14 13 10 6 5 6 5 6 6 6 7 7 7 7 8 9 8 9 10 9 9 9 9 9 9 8 9 9 8 7 7 8 9 8 7 9 9 8 8 9 9 9 9 9 8 7 6 6 5 5 4 4 3 3
10 11 12 13 13 12 10 10 10 10 11 12 12 13 13 13 14 15 15 15 14 15 15 14 15 15 14 15 14 14 14 14 13 13 13 13 12 9 7 7 5 5 5 5 5 6 6 6 7 8 7 8 8 8 9 8 8 8 8 8 8 8 8 8 8 8 8 8 8 8 8 8 8 9 9 9 9 8 7 6 6 6 5 4 4 3 3 3
10 10 12 12 13 13 12 11 10 10 10 11 11 12 13 13 13 14 15 15 13 13 14 14 14 15 14 14 14 14 14 14 14 15 13 12 11 9 8 9 6 4 4 4 4 5 6 6 6 6 6 6 7 7 8 8 7 7 7 7 8 8 8 8 8 8 7 7 7 8 7 7 8 9 8 8 9 8 7 6 6 5 4 4 3 3 3 2
11 12 13 12 11 12 13 12 11 10 10 10 11 11 12 12 13 13 14 15 15 14 14 13 14 14 14 14 13 13 14 15 15 15 14 13 12 11 10 9 7 4 3 4 4 5 5 5 5 5 5 6 6 6 6 6 6 5 5 6 6 7 7 7 8 8 7 7 7 6 6 6 8 8 8 8 8 7 6 6 5 4 4 3 3 2 2 2
11 12 12 12 11 12 13 12 12 11 11 11 11 12 12 12 13 13 13 14 15 15 15 15 14 14 13 14 14 14 14 14 12 10 9 10 10 10 10 8 7 6 4 3 4 4 4 5 5 5 5 5 5 5 5 5 4 5 6 6 6 7 7 7 8 8 8 8 7 6 6 7 8 8 7 8 8 7 6 5 4 3 3 3 2 2 2 2
Height
828 826 825 824 822 821 820 818 817 814 812 811 808 807 805 804 802 800 798 796 795 793 791 789 788 789 789 790 789 789 789 789 789 787 788 791 791 790 789 788 787 786 785 784 783 781 781 781 781 780 781 782 782 783 784 784 783 788 793 798 799 793 790 789 785 786 788 789 788 786 786 790 793 790 786 785 789 792 795 797 799 803 806 809 811 811 811 811
828 827 826 824 823 821 820 819 817 815 813 811 809 808 806 804 803 801 799 797 795 793 791 789 788 789 789 790 789 789 789 789 788 788 790 792 791 790 789 788 787 786 784 783 782 782 782 782 781 780 781 783 782 784 786 785 786 791 793 797 798 792 788 783 782 783 784 788 789 786 787 789 792 791 787 790 796 795 799 801 801 806 809 810 811 811 812 810
829 828 826 825 823 822 820 819 817 816 813 812 810 808 806 805 803 801 800 797 795 793 791 789 789 788 789 790 789 790 790 789 790 792 792 792 791 791 789 788 787 786 785 784 783 782 782 782 781 780 782 784 783 784 788 787 787 790 793 800 796 789 785 781 781 783 784 787 789 789 787 788 790 789 788 792 797 799 803 805 805 809 811 811 812 812 812 811
829 828 827 825 824 822 821 819 817 816 814 812 810 808 807 805 803 802 800 798 795 793 791 790 789 788 789 789 790 791 789 792 795 795 794 792 792 790 789 789 787 786 785 784 784 783 782 781 780 779 783 786 782 783 788 788 789 790 792 797 792 786 786 783 782 783 785 788 790 789 788 789 788 787 789 791 799 804 805 806 807 810 811 812 813 813 812 811
830 828 827 826 824 822 821 819 817 816 814 812 811 809 807 805 804 802 800 798 795 793 791 791 790 788 789 789 790 790 791 800 800 794 794 792 791 790 789 789 787 787 785 785 784 782 781 779 778 780 784 786 783 784 788 786 788 792 790 789 787 786 788 784 782 784 786 788 789 789 789 791 787 788 792 793 802 807 805 806 806 808 810 812 813 813 813 812
830 829 828 826 824 823 821 819 817 815 814 812 811 809 807 806 804 802 800 798 796 794 792 792 791 789 789 789 791 790 795 805 800 794 795 792 792 791 790 789 788 787 786 785 784 783 783 780 780 783 785 786 784 786 787 785 787 793 790 786 788 787 787 785 783 785 787 789 790 789 789 788 788 792 793 795 802 804 804 805 806 808 810 811 813 813 814 813
831 829 828 826 825 823 821 819 817 815 814 812 810 808 807 805 804 802 800 799 797 795 793 793 792 791 790 790 791 790 794 801 797 795 795 792 792 791 790 790 788 788 787 787 786 785 785 784 784 786 788 788 786 786 785 784 786 793 792 788 789 788 786 785 784 786 787 790 789 786 788 788 790 794 794 797 802 802 804 805 806 809 810 811 813 814 815 815
831 829 828 826 825 823 822 820 817 816 814 812 811 808 807 805 803 802 801 799 797 796 795 794 793 792 791 791 792 793 795 799 797 796 794 792 792 791 791 790 789 789 788 789 788 787 787 788 788 788 791 789 788 787 784 786 787 790 791 788 788 788 786 785 785 786 787 788 787 785 787 787 787 790 795 799 802 802 804 806 807 809 811 812 813 815 817 817
831 829 828 827 825 823 822 820 818 816 814 812 811 809 807 805 803 802 801 800 798 797 795 794 793 792 792 791 791 796 799 797 796 795 794 793 792 791 791 790 790 790 789 790 789 789 789 791 791 791 793 790 789 788 785 791 792 787 788 788 787 787 786 785 785 786 787 786 786 787 787 786 784 788 797 800 801 803 804 806 808 810 811 812 814 816 817 818
831 829 828 827 825 824 822 820 818 816 814 812 810 809 807 805 803 802 801 800 798 797 795 795 794 792 792 791 793 800 799 796 796 795 793 793 792 792 792 791 792 791 791 791 790 791 791 793 793 791 794 792 790 789 787 791 791 785 786 787 787 787 784 785 786 784 786 786 786 789 789 787 784 788 800 801 799 802 804 807 809 809 811 812 815 817 818 819
831 829 828 827 825 824 822 820 818 816 814 812 810 809 807 805 804 802 800 799 798 797 796 795 794 793 793 792 796 800 797 795 796 794 794 793 792 792 792 793 792 792 793 792 792 793 793 794 792 793 795 793 791 789 787 787 787 785 787 789 787 786 785 785 786 784 786 787 785 788 790 788 786 789 797 799 798 801 804 807 809 810 811 812 815 817 818 819
830 829 828 827 825 824 822 820 818 816 814 812 810 808 807 805 803 802 800 799 798 796 795 794 794 793 792 793 797 798 796 796 796 794 794 793 792 792 793 794 793 794 794 793 794 793 794 794 793 796 795 793 792 789 788 786 785 785 788 792 788 786 789 787 785 784 786 788 785 787 793 792 790 791 792 795 798 801 803 807 809 810 810 812 815 816 818 818
830 829 828 827 825 824 822 820 818 816 814 812 810 808 807 805 803 801 799 798 797 795 794 793 793 792 793 796 797 796 796 796 795 794 794 793 793 792 793 794 793 794 794 794 794 793 794 794 794 795 792 793 793 790 789 786 787 789 788 791 792 795 795 787 784 785 786 789 784 789 800 796 787 788 790 794 797 800 804 807 808 809 810 812 814 816 817 817
830 829 828 826 825 823 822 820 818 816 814 812 810 808 806 804 802 801 799 798 796 794 793 793 793 792 795 798 796 795 796 795 795 795 794 794 793 793 793 793 793 794 794 794 794 793 794 793 794 794 792 793 790 789 790 789 790 790 789 791 793 800 798 785 784 787 790 790 784 791 804 796 785 788 791 793 796 798 803 806 807 808 810 813 814 815 816 815
830 829 828 826 825 823 821 820 818 816 814 811 809 807 805 803 801 800 799 798 795 794 793 793 793 793 796 798 796 796 796 795 796 795 795 794 793 793 793 793 793 793 793 794 794 794 794 793 795 795 792 788 789 794 793 792 793 789 793 797 791 794 796 788 784 786 790 790 783 791 802 794 788 791 791 792 796 798 803 806 807 809 811 813 814 815 815 814
830 829 828 826 825 823 821 820 818 816 814 811 809 806 804 802 800 799 798 797 795 794 793 793 793 794 799 799 796 796 796 796 796 796 795 794 794 794 793 792 792 792 793 793 794 794 793 794 794 793 792 791 793 797 794 795 797 791 794 798 792 793 796 792 789 785 786 789 784 789 798 794 791 794 791 793 796 798 803 805 807 809 811 813 814 814 814 814
830 829 828 826 825 823 822 820 818 816 813 811 808 805 802 801 799 798 798 796 795 794 793 794 792 794 798 797 796 797 797 797 797 796 795 794 794 793 792 792 791 792 792 793 794 793 793 794 793 792 793 794 791 792 800 805 804 798 796 798 795 793 795 795 795 788 785 790 789 788 793 792 791 794 793 794 796 798 802 805 807 810 812 813 814 813 813 814
830 829 828 827 825 824 822 820 818 816 814 811 808 804 802 800 798 797 797 796 794 794 794 794 793 800 803 799 798 799 797 797 796 796 795 794 793 793 793 792 791 792 792 793 794 793 792 791 791 794 794 794 792 797 810 813 809 807 805 805 802 798 798 797 794 790 787 789 791 791 792 788 788 794 795 794 795 798 802 805 807 810 811 812 812 812 813 815
829 828 828 827 825 824 822 821 819 816 814 810 808 803 800 798 796 796 796 796 796 799 801 799 799 807 807 800 799 799 797 797 796 796 795 794 793 792 792 792 792 793 794 795 794 791 792 792 794 799 798 797 799 802 808 808 807 808 807 809 810 807 803 794 788 789 788 790 791 791 791 786 786 793 795 794 795 799 803 804 807 809 810 812 812 812 814 816
828 828 827 826 825 824 822 821 819 817 814 811 807 802 802 803 801 800 799 798 800 802 803 802 801 803 802 799 799 798 797 797 796 795 795 794 793 791 791 790 791 795 795 796 796 791 792 800 801 802 802 801 801 801 802 803 804 806 808 809 809 808 804 792 787 789 787 792 793 788 789 786 783 788 793 794 796 800 803 805 807 809 811 811 812 813 814 814
828 828 826 826 825 824 823 821 819 818 815 812 808 806 811 815 814 813 810 803 799 800 801 800 801 801 800 800 799 798 798 797 795 795 794 793 792 792 792 791 794 798 796 794 794 791 795 805 805 802 802 802 801 800 801 803 804 806 807 808 807 805 800 789 786 788 786 793 796 789 790 788 781 784 791 794 797 800 802 804 807 808 810 811 811 812 812 812
828 827 826 826 824 823 822 821 820 818 816 814 811 812 817 820 819 821 819 811 802 799 800 800 800 800 799 799 799 799 800 798 797 796 794 793 792 795 796 794 799 802 796 792 794 799 803 805 803 802 802 801 800 800 802 804 805 806 806 808 808 801 797 790 786 787 788 794 798 791 791 787 779 782 790 793 796 799 800 803 806 807 809 810 810 811 811 812
827 825 825 825 823 823 822 821 820 818 817 815 814 817 819 820 820 820 822 818 807 799 799 800 800 799 798 799 798 799 799 797 798 797 795 794 793 796 799 798 802 802 798 796 800 810 811 802 799 800 800 801 801 800 802 804 804 805 805 807 806 798 800 800 793 791 791 794 796 792 790 786 782 786 791 793 796 799 802 804 806 807 808 809 809 809 810 811
825 824 824 823 823 823 821 821 820 818 818 817 818 819 819 820 820 820 820 816 807 800 799 799 798 798 798 799 798 798 799 796 797 798 796 796 795 797 798 799 803 802 799 800 803 809 807 799 799 800 800 802 803 802 802 805 805 802 800 803 804 801 804 805 800 798 796 794 792 792 793 784 782 791 793 796 800 802 805 806 807 808 807 808 808 808 810 810
824 824 823 822 822 821 821 821 819 820 819 818 820 820 820 820 819 820 819 814 809 802 799 799 798 799 797 797 798 798 798 797 797 798 796 796 797 798 798 798 802 803 800 800 804 805 800 798 800 801 801 801 805 805 802 804 808 805 802 806 808 807 808 808 806 806 807 803 792 792 799 787 780 790 794 798 803 803 805 806 807 807 806 807 807 808 810 811
823 823 822 822 821 820 820 819 820 821 819 820 821 819 821 820 819 821 818 819 815 802 800 802 799 799 797 797 798 797 800 800 797 797 797 798 797 798 801 799 798 802 801 800 803 803 798 798 801 802 803 803 805 806 801 802 809 810 808 809 810 810 811 810 810 812 813 806 790 790 803 797 786 788 792 797 801 801 803 803 804 806 805 806 807 808 811 811
822 822 821 821 820 819 819 819 821 820 819 822 820 820 821 818 820 820 818 828 819 798 799 803 799 798 798 797 797 799 804 801 797 798 797 799 798 798 804 802 799 800 799 803 807 802 796 800 803 802 804 805 806 805 802 803 808 810 809 810 810 810 811 810 811 814 811 803 794 789 797 800 791 782 783 792 798 798 799 801 802 803 804 805 807 809 810 810
821 821 820 820 820 819 819 820 821 820 821 822 819 821 820 818 822 817 824 838 817 791 796 800 798 798 796 797 797 798 800 796 799 801 797 799 799 799 803 802 802 802 798 806 813 802 795 801 803 802 805 806 805 805 804 804 807 809 809 810 809 809 810 808 810 812 808 805 802 791 792 800 789 775 779 788 794 797 796 798 801 801 803 805 806 808 808 809
821 820 820 820 819 819 820 820 820 820 821 820 820 821 818 821 821 816 831 838 805 788 796 797 798 798 795 798 798 796 796 794 798 800 798 800 799 800 803 801 802 803 799 803 808 800 797 802 802 803 806 805 804 806 805 806 807 807 808 806 806 806 805 806 809 809 807 807 804 792 790 797 787 777 786 791 789 793 793 794 798 799 802 804 805 807 807 807
820 819 819 819 818 819 819 819 819 820 820 820 820 820 819 822 821 827 843 830 798 794 798 796 799 798 796 799 797 795 797 795 795 798 799 799 799 800 801 802 803 805 803 802 802 799 799 804 804 803 803 802 804 806 805 806 806 806 807 805 805 803 800 803 804 804 809 806 798 790 786 791 790 781 783 784 780 782 786 789 795 798 800 802 804 805 805 803
819 819 819 818 818 818 818 819 819 818 819 820 820 820 821 821 822 836 839 812 796 801 799 798 801 797 798 802 800 798 797 794 794 798 801 800 802 802 802 805 805 807 808 805 804 802 801 805 803 802 801 801 804 806 805 806 806 808 809 808 808 802 796 799 800 802 811 804 793 792 788 789 792 779 774 778 775 774 780 786 793 797 798 801 802 802 801 801
819 818 818 818 818 817 817 818 818 818 819 819 820 820 821 828 831 831 819 798 798 803 798 801 802 798 802 806 805 802 801 799 794 797 802 803 805 804 805 806 804 810 811 803 804 804 801 802 801 802 804 802 804 806 807 807 807 810 811 810 812 808 802 802 802 802 804 799 794 796 794 791 785 771 768 775 776 776 781 786 792 796 797 799 799 799 799 800
818 817 817 817 817 817 817 817 817 818 818 818 820 818 824 839 835 819 806 798 800 801 797 801 802 801 806 808 806 803 805 803 795 797 803 806 809 806 804 805 803 809 811 805 806 805 801 801 802 804 803 801 802 804 805 806 808 811 809 808 810 813 813 809 803 798 794 792 791 793 795 792 780 767 764 771 777 780 784 787 791 792 794 796 796 798 799 799
817 817 817 816 816 816 815 816 816 817 817 818 819 821 832 842 826 808 802 797 797 800 800 802 804 805 808 807 803 800 804 803 797 803 807 808 815 811 805 807 806 807 811 811 809 806 804 800 800 802 800 801 803 801 802 804 806 807 803 806 808 808 812 808 802 801 798 796 792 791 793 785 774 768 766 771 778 781 784 787 788 790 793 795 796 797 798 797
816 816 816 815 815 815 814 816 815 816 818 817 819 825 834 833 816 806 803 795 795 800 802 803 804 808 809 806 802 799 803 804 800 806 809 808 811 808 800 802 806 807 810 811 805 802 802 796 798 804 800 802 804 800 802 803 805 806 802 807 810 804 804 802 801 804 809 808 798 790 785 772 768 772 772 775 780 781 784 786 787 790 792 793 795 796 797 797
816 815 815 814 813 813 813 814 814 816 816 817 823 827 823 815 805 802 797 791 794 798 802 806 806 809 809 803 803 803 803 806 806 807 808 805 804 800 795 796 802 803 803 805 800 798 799 796 803 808 802 805 807 802 803 802 802 807 806 807 809 806 804 804 806 808 815 816 798 784 782 770 768 776 776 778 781 782 784 785 787 790 791 793 795 796 797 797
815 815 814 813 812 812 812 813 814 816 815 818 823 820 810 802 795 793 791 792 796 794 800 810 806 804 805 801 801 805 808 808 809 808 806 803 797 794 793 796 800 799 797 800 798 797 800 799 803 807 803 806 810 806 805 804 804 807 809 807 807 808 807 809 819 823 826 822 797 780 783 776 770 777 780 780 781 781 782 784 787 790 791 794 795 795 795 795
813 814 813 811 811 810 811 813 814 815 816 819 821 814 804 797 790 788 789 792 795 795 802 810 803 796 799 800 798 803 810 809 808 810 806 800 793 787 789 796 800 801 799 801 801 800 803 801 803 812 811 807 809 807 805 805 806 807 808 807 807 811 811 813 824 827 823 819 796 774 776 775 768 772 779 780 778 778 780 783 787 789 790 792 793 794 794 794
813 814 811 808 808 809 810 812 813 815 817 819 819 810 800 794 789 786 788 790 793 798 803 805 800 796 796 797 796 800 807 806 804 806 802 796 791 786 786 791 798 804 804 803 803 802 804 803 805 814 816 809 808 810 806 805 809 811 811 809 806 810 811 810 818 818 814 813 801 783 775 770 762 760 766 771 774 777 781 784 786 787 788 790 791 792 792 793
811 812 808 805 806 807 809 812 813 815 815 813 811 803 795 791 788 785 785 787 790 795 798 798 799 798 795 794 793 795 801 801 798 800 797 791 788 786 786 787 795 807 809 806 807 805 806 806 803 811 819 813 807 806 801 798 804 811 813 812 810 809 808 809 812 812 810 813 811 803 787 770 763 761 761 767 772 776 780 782 784 785 786 788 789 790 791 791
810 810 805 802 805 806 808 812 812 812 812 808 803 798 793 789 786 784 783 785 787 787 789 792 794 795 794 793 792 792 795 796 796 796 793 789 788 787 786 787 793 804 809 809 809 806 805 805 803 806 812 809 801 799 799 798 799 803 804 803 803 806 809 814 815 811 813 813 809 807 793 769 763 765 762 766 770 772 776 779 781 782 784 786 787 788 789 789
808 807 802 801 804 804 806 808 807 806 806 801 795 793 790 786 784 784 783 784 786 785 785 788 790 791 791 790 791 791 792 794 792 791 790 786 784 784 784 788 794 797 802 807 808 806 805 808 808 801 796 798 799 800 804 805 802 802 800 795 796 800 804 811 812 809 814 812 803 807 799 771 760 762 761 764 768 770 773 775 777 780 782 784 785 786 787 787
803 803 801 801 803 803 805 804 803 802 798 792 788 786 785 783 782 783 783 784 786 788 788 787 786 787 786 786 789 789 791 792 785 783 786 782 781 788 789 790 795 796 797 802 805 806 807 808 810 806 796 796 802 806 807 806 805 805 800 796 796 794 794 801 803 805 813 808 803 814 806 774 761 762 760 763 766 768 771 772 775 779 780 782 784 784 785 784
798 798 800 802 803 803 802 796 794 795 791 788 787 785 781 779 778 780 781 782 783 786 788 785 782 783 782 782 785 786 789 790 781 777 781 778 783 797 796 791 795 794 795 798 799 800 802 803 809 817 811 799 796 800 804 806 808 803 796 795 795 792 796 802 803 811 814 800 798 812 800 770 763 766 763 765 768 768 769 770 774 777 778 780 782 782 782 782
796 796 797 800 801 802 797 788 786 786 785 786 786 781 779 776 773 774 776 777 777 780 783 780 777 778 780 781 784 783 783 784 780 776 776 777 787 801 801 797 797 796 799 803 798 795 799 801 804 811 810 795 781 782 791 798 802 798 794 793 793 794 799 801 805 815 809 791 790 797 784 764 762 765 764 765 767 767 766 768 771 774 776 778 779 780 780 780
791 791 793 799 801 799 794 788 788 784 779 782 779 773 775 775 769 768 772 774 774 774 776 775 774 778 780 781 785 783 779 779 780 778 776 779 792 804 805 802 803 802 804 805 800 798 806 809 804 799 794 783 775 778 787 792 794 795 794 792 792 794 794 797 805 805 795 791 787 777 771 769 763 762 765 764 765 766 765 766 771 773 775 777 778 779 779 779
784 779 780 789 795 795 794 791 789 783 776 776 773 766 766 768 766 767 770 770 769 770 772 771 772 777 779 780 783 780 775 776 779 777 774 778 795 809 808 804 806 806 804 805 801 802 812 812 803 798 791 779 777 785 790 790 790 791 792 791 790 792 792 797 798 787 784 795 783 761 766 773 762 760 765 764 764 765 763 767 771 772 774 776 777 778 778 778
776 767 764 770 774 780 785 782 781 781 777 773 769 762 761 763 764 766 766 766 766 766 769 769 766 769 772 773 776 774 771 775 779 776 773 776 789 805 809 807 808 806 805 808 805 805 813 808 795 797 796 785 785 790 789 790 791 788 790 790 788 789 790 792 789 781 783 787 770 756 765 766 757 759 761 760 763 764 764 769 770 771 774 774 776 778 777 778
768 765 761 760 758 759 764 767 772 777 774 771 766 758 759 763 762 759 761 766 767 763 765 766 761 762 764 765 769 769 765 770 772 768 770 773 778 791 799 801 806 808 807 810 810 809 813 807 796 797 798 792 792 792 789 791 792 787 788 789 786 785 783 782 780 779 781 776 763 762 766 757 751 756 757 758 762 763 765 769 769 770 773 774 776 777 777 777
759 759 757 758 755 751 754 760 767 770 767 767 762 753 757 761 756 753 757 760 761 760 762 761 753 753 758 759 762 758 752 757 760 756 762 770 774 783 788 785 796 810 811 810 812 812 811 806 801 803 805 798 794 794 793 792 792 789 787 785 785 783 779 776 773 772 776 773 764 766 768 756 747 751 756 759 760 762 765 767 767 770 773 774 776 777 776 777
749 750 751 755 754 749 750 752 758 764 762 757 752 749 754 752 745 749 753 747 746 751 753 750 745 748 754 755 754 749 744 748 751 750 755 760 762 767 772 772 783 801 809 810 810 809 811 809 805 809 809 798 793 799 798 796 799 796 784 780 783 780 771 767 764 764 767 767 765 769 768 754 744 749 757 757 757 760 763 765 767 771 772 775 776 775 775 775
746 748 748 752 749 743 743 744 750 754 744 734 738 742 741 737 737 747 751 742 736 737 736 736 741 748 750 747 742 739 741 747 754 759 761 762 760 761 764 768 773 784 798 806 806 805 806 805 805 809 807 800 801 804 803 807 808 787 763 761 770 769 763 760 758 757 756 758 762 762 754 745 746 753 756 755 756 759 762 765 769 771 772 774 774 774 775 775
Wind_Speed
23 24 26 26 27 28 28 29 29 29 30 30 30 30 31 30 30 27 24 22 21 23 20 13 8 4 9 11 12 12 12 11 12 16 13 7 9 9 8 9 11 11 10 8 11 11 5 4 3 6 2 4 1 1 1 0 1 1 1 1 4 2 3 3 4 4 3 4 6 6 7 6 4 4 3 2 1 6 9 9 12 16 15 14 16 19 20 20
23 24 25 26 27 27 28 28 28 29 30 30 30 30 29 29 30 27 25 25 23 23 19 13 9 3 10 12 11 10 7 5 9 15 10 10 12 11 9 10 11 10 9 7 9 10 6 5 6 8 4 2 1 1 1 1 0 1 1 2 2 3 2 4 5 5 5 6 6 7 6 5 5 3 4 3 6 8 8 7 9 13 12 14 17 19 19 20
22 24 25 26 27 27 27 27 28 28 29 29 29 28 29 28 29 27 26 26 26 23 18 12 9 3 9 12 10 5 1 3 2 8 7 12 14 11 11 10 10 10 9 6 6 6 4 5 7 7 4 2 1 2 1 1 0 0 1 1 1 3 1 3 5 5 6 7 6 5 5 3 6 3 3 3 8 8 7 6 8 9 9 10 11 14 17 18
22 23 24 26 27 27 27 27 27 28 29 29 29 28 28 28 27 27 26 27 28 23 15 10 8 4 5 12 11 4 2 3 1 4 8 14 14 12 10 10 10 10 9 6 6 7 6 7 8 5 2 2 2 3 2 1 1 1 0 1 1 2 2 1 4 5 6 6 4 5 4 3 3 3 3 4 7 6 7 7 9 9 9 9 8 11 15 17
21 23 24 25 26 27 27 27 27 27 28 28 28 27 27 27 26 27 26 26 29 22 12 9 7 4 3 8 11 5 1 1 1 5 12 15 12 11 10 10 12 10 10 9 9 9 8 8 6 3 2 3 2 3 2 3 1 1 0 2 4 3 2 1 4 4 6 4 4 5 3 3 3 3 6 7 6 4 6 9 10 9 8 9 8 10 13 15
20 22 23 25 26 27 27 27 26 26 27 27 28 27 27 27 26 26 25 25 27 21 11 7 6 5 5 6 10 5 1 0 3 9 15 14 10 10 10 11 12 10 11 11 11 9 6 6 5 1 1 3 1 1 3 3 2 1 1 4 5 4 1 1 4 4 6 3 4 3 3 2 1 6 6 7 8 7 9 10 10 9 10 12 11 11 11 11
20 21 23 24 25 26 26 26 26 26 27 27 27 28 28 27 27 26 24 24 25 20 12 5 3 5 6 6 6 4 1 3 6 12 14 12 9 10 11 12 13 12 11 10 11 9 6 6 5 4 3 3 1 1 2 2 3 2 1 4 4 3 3 2 3 3 3 2 3 3 2 4 4 7 6 9 10 10 11 10 10 11 12 13 11 10 10 11
19 21 22 23 25 26 26 26 26 26 26 27 27 27 28 28 27 26 23 23 23 19 13 5 2 4 2 1 1 2 2 3 7 12 12 9 8 11 13 13 12 11 9 8 10 9 6 6 5 4 3 1 2 2 2 2 4 4 1 2 3 2 2 3 3 1 0 1 4 5 3 3 4 7 7 10 11 10 10 9 10 10 11 11 9 10 9 10
19 20 22 23 24 25 25 26 26 26 26 26 26 26 28 28 27 26 24 22 22 18 12 7 3 6 5 4 3 2 1 2 8 12 11 9 8 11 13 13 12 11 9 7 10 11 6 4 5 3 3 3 3 3 2 2 3 2 1 1 2 3 4 3 4 2 2 1 3 5 1 4 7 8 7 10 11 10 10 9 9 8 9 9 9 9 9 9
18 20 21 22 24 24 25 26 26 26 26 26 25 26 27 27 27 26 25 22 20 18 12 7 2 6 7 5 3 3 2 3 7 12 11 9 8 9 11 13 12 12 10 7 8 10 5 4 5 3 3 3 3 3 1 1 1 1 1 2 3 4 4 4 5 4 3 1 3 4 2 4 8 5 5 9 11 10 10 9 8 8 9 9 9 8 9 9
17 19 20 21 23 24 25 25 26 25 25 26 25 25 26 26 26 24 25 21 17 19 14 6 2 3 7 6 4 2 2 4 7 12 12 11 9 9 11 13 13 11 10 7 7 8 5 5 7 3 1 1 2 3 3 0 1 2 2 3 5 6 4 5 6 4 4 2 4 4 4 3 6 2 6 12 10 10 10 9 8 7 8 8 9 7 8 9
17 18 19 21 22 23 25 25 25 25 25 26 25 26 25 25 25 22 24 21 17 20 16 7 4 7 8 4 1 2 3 4 8 12 13 12 10 9 10 11 11 9 8 7 5 6 5 6 5 3 1 2 3 2 1 2 3 3 2 2 4 7 5 7 7 4 5 1 3 4 4 3 7 5 11 14 10 10 10 9 8 7 7 7 7 6 6 7
17 17 19 20 21 23 24 25 25 25 25 25 25 26 24 25 23 21 23 19 18 21 15 8 6 8 7 1 1 2 3 5 8 12 13 12 10 10 10 10 11 9 6 5 4 5 4 4 3 4 3 3 3 1 0 1 2 3 2 2 3 5 5 8 7 5 6 2 1 3 3 3 7 9 13 13 11 11 9 8 7 6 7 6 6 5 5 7
16 17 18 19 21 22 23 25 25 25 25 25 26 26 24 24 20 20 21 17 20 18 10 6 4 6 4 1 1 1 3 5 8 13 13 12 11 8 6 8 12 10 6 4 5 4 3 3 2 4 3 3 2 1 2 1 2 2 1 2 3 3 4 8 6 6 6 2 2 2 2 4 3 11 13 11 10 10 9 7 7 6 6 6 5 5 4 6
16 16 18 19 20 22 23 24 25 25 25 25 26 26 25 22 19 20 16 14 19 13 5 4 2 3 2 1 0 1 3 4 6 12 14 14 13 5 3 9 11 8 6 4 5 3 2 1 1 3 1 3 2 3 4 3 2 2 0 3 3 1 2 6 5 6 5 2 5 3 2 3 3 10 11 9 9 9 10 7 7 6 6 6 4 5 4 5
15 16 16 18 20 21 23 24 25 25 25 26 26 26 25 19 19 18 10 14 16 6 3 3 2 3 2 1 1 1 3 3 4 11 13 15 12 6 7 10 8 6 4 4 5 4 2 2 1 1 1 1 2 3 4 1 2 3 2 3 2 2 0 4 2 4 2 1 4 3 2 3 2 8 8 9 9 9 10 8 8 7 6 6 4 4 4 5
14 15 15 17 19 20 22 23 24 25 25 26 25 28 23 15 18 12 7 16 12 2 3 4 4 4 1 1 1 1 3 3 6 8 10 14 12 9 8 6 4 4 4 5 6 3 3 3 2 1 1 3 3 1 4 4 2 1 0 3 3 3 3 1 2 4 4 2 3 2 3 5 4 9 7 8 9 9 10 8 8 7 5 5 4 4 5 5
13 14 14 16 18 19 21 22 23 24 25 25 26 27 17 14 16 5 8 20 9 2 1 3 4 3 1 2 1 1 4 5 7 5 8 13 12 10 6 4 3 5 4 4 4 2 3 3 2 0 1 2 1 4 2 3 2 3 3 3 4 4 4 5 2 3 4 4 3 3 5 6 5 10 7 8 8 8 9 7 7 6 5 5 4 5 5 4
12 13 13 15 16 18 19 21 22 23 24 24 26 22 11 11 11 3 9 21 6 2 2 1 3 2 2 2 1 5 7 7 5 2 7 12 13 10 5 5 3 2 4 1 1 2 1 1 1 2 2 1 3 4 1 3 4 5 5 4 5 5 5 8 4 3 3 3 4 5 5 6 5 8 8 7 8 8 8 7 6 5 5 5 4 5 4 2
12 12 13 13 15 16 18 19 21 22 22 23 25 17 7 8 5 2 9 13 1 2 3 4 2 4 4 1 2 9 8 4 2 1 7 14 12 8 3 4 3 1 1 3 5 2 2 3 3 1 2 4 4 3 2 4 3 4 4 4 6 6 6 8 4 3 2 1 4 5 6 9 7 6 10 8 8 8 8 8 6 6 5 4 5 5 2 2
11 11 12 13 14 15 16 18 20 20 19 20 19 10 3 4 3 2 6 5 2 2 1 3 2 4 4 1 3 7 3 3 1 1 8 12 8 4 2 2 2 2 3 6 6 0 3 3 3 3 3 3 2 1 2 3 4 4 5 5 6 6 6 6 3 4 4 0 3 6 8 11 10 5 10 9 8 8 8 8 7 6 6 4 5 4 2 2
10 11 11 12 13 14 15 17 18 17 16 17 15 8 4 3 1 2 2 4 3 3 3 2 1 3 3 1 2 3 2 3 1 2 8 11 4 1 4 4 4 4 7 7 4 2 3 3 1 3 1 1 1 2 3 4 4 5 5 5 6 4 3 5 2 3 2 1 3 7 9 10 8 5 11 9 8 7 6 7 7 6 6 4 4 4 2 3
9 10 11 11 12 12 14 15 14 14 15 14 12 6 2 2 3 3 2 4 4 3 4 2 2 2 3 2 1 2 3 2 1 1 7 9 2 1 2 3 4 6 6 4 3 4 5 3 2 2 1 1 2 3 4 5 5 5 5 5 6 2 1 3 1 2 4 5 6 9 8 7 5 5 9 7 6 6 6 7 6 5 5 5 4 4 4 3
8 10 10 10 11 11 13 13 10 11 12 10 10 7 2 3 3 3 1 3 3 1 2 1 1 1 1 1 1 1 2 2 0 0 5 6 2 1 0 2 4 5 2 4 3 4 7 4 2 0 1 0 3 3 4 3 3 4 4 4 4 2 1 3 3 5 8 7 6 6 7 6 5 8 7 5 7 6 7 7 6 5 5 5 4 5 5 4
8 9 9 10 10 10 11 9 7 11 8 5 8 6 2 2 4 3 1 2 3 1 1 0 1 1 1 2 0 1 1 1 1 2 4 3 1 1 0 1 1 4 3 4 4 6 7 3 1 0 1 0 2 4 3 1 2 4 1 1 1 2 3 4 6 6 6 5 2 2 4 5 6 10 7 6 7 7 7 7 7 6 5 5 4 6 5 4
7 8 9 9 10 10 8 3 6 10 4 2 6 5 3 1 4 2 1 1 3 1 1 0 1 2 2 2 1 0 1 1 1 2 2 3 1 1 1 0 2 2 3 2 3 4 3 1 3 1 1 1 3 5 2 3 1 3 2 2 3 2 4 5 5 4 2 5 3 2 2 5 2 7 9 8 8 8 8 7 7 6 5 5 5 5 3 3
6 7 8 8 9 9 4 1 5 7 2 1 6 5 3 2 4 2 1 1 3 2 2 1 1 2 2 1 1 0 1 2 2 1 2 2 1 2 1 2 1 2 0 1 3 2 2 2 2 2 1 2 3 3 2 2 1 2 3 1 1 2 5 5 5 4 4 6 7 4 5 6 6 6 10 13 10 9 9 7 6 6 5 5 5 5 2 3
6 5 7 7 7 6 4 2 4 4 1 4 6 5 2 3 4 1 1 2 2 2 2 1 0 1 2 1 2 2 1 3 1 0 1 0 0 2 2 4 3 4 0 2 3 2 2 2 2 2 2 2 2 2 1 1 1 2 2 1 2 4 7 7 6 6 5 6 7 6 5 5 7 3 7 12 11 9 10 9 8 6 5 6 5 4 1 4
6 4 6 6 5 4 5 3 2 1 3 5 5 3 3 4 1 1 2 1 1 2 1 1 2 1 2 1 3 3 2 2 0 0 1 1 1 1 2 1 2 6 4 5 7 5 1 2 2 3 2 3 2 3 2 1 1 1 3 4 5 6 7 6 6 5 5 6 8 7 6 5 6 2 7 8 8 9 9 8 8 7 6 6 4 2 2 3
7 3 5 5 3 2 4 2 0 1 4 5 3 2 4 2 1 1 1 2 0 1 1 1 1 1 3 3 3 4 3 2 2 1 1 1 0 1 1 1 2 4 6 5 8 7 1 3 2 1 2 2 3 2 2 2 1 3 4 5 5 6 7 5 6 4 3 5 7 6 7 8 5 2 7 6 5 9 9 7 7 7 6 6 4 1 2 3
8 3 5 5 2 1 2 1 2 2 4 3 3 3 2 0 0 1 3 1 2 0 1 1 0 1 1 1 1 2 2 3 3 3 2 0 1 2 1 1 2 2 4 4 6 4 1 1 1 0 1 2 4 0 3 3 1 2 1 4 4 4 4 3 2 2 2 5 2 4 1 4 6 2 5 4 3 8 9 7 8 6 5 5 2 1 3 5
8 5 4 4 2 0 1 3 4 4 3 1 3 1 0 1 2 4 3 1 1 2 2 1 0 1 2 2 1 3 1 2 3 4 2 1 1 3 2 3 1 2 4 2 2 3 2 4 2 3 2 1 3 1 1 1 1 2 2 2 3 4 3 2 1 1 4 5 2 6 7 2 7 5 3 7 5 7 7 7 8 6 5 4 2 3 4 4
8 7 5 4 3 2 3 4 5 4 1 2 1 1 0 1 4 4 4 1 1 1 1 1 1 2 3 2 2 2 2 2 4 2 1 3 1 3 3 3 3 1 4 1 3 4 2 1 2 3 1 2 4 2 1 1 1 4 2 2 3 1 3 4 2 2 4 4 4 4 5 3 5 5 4 9 8 8 8 7 7 6 6 4 2 2 3 4
9 8 7 7 5 5 5 5 5 3 1 3 1 2 3 4 4 2 4 3 1 1 2 3 2 2 2 2 3 2 1 4 4 2 1 3 1 3 3 3 3 3 2 2 3 3 3 3 1 3 1 3 4 3 3 2 1 4 2 2 3 2 3 4 1 2 4 5 5 0 3 3 3 2 3 9 8 8 8 7 6 6 6 5 2 2 3 5
10 8 9 10 8 6 5 6 6 4 4 2 1 3 5 5 3 2 4 2 1 2 2 3 2 2 3 4 3 2 1 3 2 3 2 4 4 4 4 4 5 5 3 1 2 1 4 5 1 0 1 4 3 1 3 3 0 2 2 3 1 2 3 4 1 2 2 6 6 2 2 4 3 1 5 9 7 7 7 6 6 5 4 4 3 3 4 4
9 7 8 9 8 6 4 6 6 6 5 2 3 6 6 5 4 3 3 0 1 3 3 1 2 2 4 3 3 2 1 0 1 2 2 5 6 6 4 3 5 8 6 3 1 0 3 4 0 1 1 2 1 1 1 1 0 0 2 1 3 1 2 1 3 1 2 5 6 2 3 4 2 2 4 8 7 7 7 6 6 4 3 4 3 2 3 4
7 4 6 6 7 7 5 5 6 7 4 2 5 7 6 5 6 5 1 2 1 2 3 1 3 4 4 2 3 4 1 1 1 1 2 3 4 6 5 2 3 8 7 3 1 1 1 3 3 1 0 0 2 3 1 1 2 3 2 2 1 1 2 2 2 2 1 6 6 3 6 6 2 2 3 7 7 7 7 5 5 4 3 2 1 2 4 5
5 3 6 8 11 11 8 7 7 6 2 2 6 8 6 6 8 5 2 4 0 1 3 3 3 4 4 2 1 4 4 1 3 3 2 2 3 4 7 3 1 2 1 4 1 1 2 2 3 0 1 0 2 2 2 1 2 3 1 1 2 0 1 2 1 1 2 7 6 4 7 6 5 4 5 8 8 6 5 5 3 1 2 2 2 4 5 5
4 1 3 7 12 13 11 9 8 4 2 4 7 7 6 8 9 6 3 3 2 3 3 5 4 3 4 4 2 3 5 4 4 3 2 3 3 3 7 4 1 0 2 4 2 1 2 1 3 1 1 1 1 1 2 2 1 3 2 2 1 2 2 2 2 2 3 6 7 8 8 3 4 5 7 8 6 6 4 3 2 1 2 3 3 3 4 5
5 1 2 10 13 12 12 11 6 3 4 6 7 6 5 6 7 8 8 6 4 3 4 4 5 5 5 5 4 3 5 6 5 4 3 3 3 3 6 5 5 4 4 5 1 0 2 2 3 2 2 0 1 3 5 5 4 3 2 3 3 2 1 1 1 2 3 5 5 8 10 4 1 0 5 7 5 6 5 3 2 1 2 2 2 2 4 5
4 2 3 10 13 13 14 8 3 4 5 6 7 8 8 6 5 7 8 8 6 5 4 4 5 6 5 5 5 3 4 4 5 5 4 4 3 4 4 5 7 7 4 4 0 1 1 3 4 2 2 4 4 2 2 3 4 5 5 6 6 5 3 2 5 2 2 5 4 6 12 7 2 1 4 6 4 6 6 3 3 2 3 2 1 2 4 5
3 3 4 10 16 17 12 4 3 5 5 7 8 8 7 6 7 7 6 7 7 5 4 6 7 7 7 6 5 3 3 4 6 5 4 5 7 5 3 6 9 9 6 2 1 2 1 1 2 6 5 4 3 0 0 1 2 3 4 4 5 6 6 5 7 3 1 3 3 4 11 8 3 4 4 5 5 6 5 5 4 3 4 1 2 3 4 6
4 3 4 10 17 15 7 4 5 5 7 7 8 9 9 7 7 7 7 7 6 4 4 6 7 8 8 6 6 5 4 4 9 8 5 5 6 4 2 7 10 8 5 2 1 1 1 1 1 6 5 2 1 1 1 0 0 2 5 4 4 5 5 5 5 1 1 6 4 3 9 7 1 3 3 4 5 5 5 5 4 4 3 1 2 3 5 7
5 4 2 9 15 11 6 6 8 8 8 7 8 11 11 9 8 8 9 9 7 5 5 6 7 8 7 6 6 7 6 4 8 8 7 7 4 3 2 5 9 6 3 1 2 3 2 2 2 2 6 5 3 1 1 1 2 3 4 4 5 5 3 1 1 2 3 12 10 6 11 9 2 2 4 5 5 5 6 4 5 5 2 1 2 4 6 8
5 4 1 8 13 10 5 4 5 7 8 9 12 14 13 10 9 11 11 10 8 7 6 6 6 7 5 5 5 7 8 9 7 4 5 5 2 3 3 2 2 3 2 1 0 3 3 2 3 3 7 9 7 4 3 2 3 3 4 7 8 7 7 4 2 3 8 12 11 10 13 11 6 4 3 4 5 5 6 2 4 4 3 3 4 5 7 9
4 4 2 4 6 7 4 2 3 6 8 10 11 13 14 12 9 10 12 11 10 11 10 7 4 5 5 6 7 10 11 11 9 4 3 3 1 1 1 2 3 3 4 2 3 1 2 1 6 10 11 12 9 5 1 2 4 4 5 9 10 10 12 9 5 8 9 6 9 14 13 13 15 11 8 9 7 8 8 3 3 4 3 4 4 5 7 8
4 4 5 5 4 5 5 4 6 8 9 10 8 7 12 14 10 8 11 11 10 11 12 9 7 7 6 8 9 12 12 10 9 10 10 6 2 1 1 2 3 3 4 2 2 3 3 4 10 14 17 18 11 5 2 4 6 7 6 8 10 11 13 12 13 14 6 2 13 16 10 13 19 13 9 10 8 8 7 1 3 2 2 3 4 6 8 9
6 3 5 8 5 5 7 8 11 11 12 12 9 10 13 14 10 8 9 8 9 10 9 9 12 14 13 12 10 9 10 7 8 12 12 6 3 2 0 1 2 3 4 2 2 3 3 6 9 11 16 18 12 9 7 5 7 9 8 9 11 13 14 16 19 18 10 10 17 16 11 16 17 11 11 9 6 7 5 2 2 1 2 3 5 7 9 10
7 2 3 8 7 7 10 12 14 16 18 15 12 15 16 14 15 12 7 4 6 11 10 10 14 15 17 17 12 11 12 8 8 12 9 6 6 5 3 2 2 3 4 3 0 2 3 5 6 8 13 14 11 11 10 9 10 12 11 12 13 15 17 18 20 18 16 19 22 19 20 23 18 13 13 10 6 6 2 4 1 1 3 5 6 7 8 9
8 3 4 5 7 8 7 10 13 13 15 15 14 15 13 16 22 16 8 9 10 8 9 15 20 16 16 17 16 17 18 13 13 14 8 8 7 5 4 4 4 5 4 4 2 2 3 2 2 4 8 11 9 9 10 10 12 15 15 14 15 17 19 20 19 17 16 20 23 22 21 22 17 12 10 9 6 4 4 2 1 1 4 5 6 7 8 9
14 10 9 3 5 10 7 7 11 9 10 14 14 13 13 20 25 17 11 15 17 11 12 21 25 16 11 15 19 23 22 17 16 15 9 10 9 7 7 5 8 9 6 6 4 4 5 3 2 3 5 6 5 7 8 7 9 17 22 20 18 18 19 19 17 15 15 18 21 19 16 16 13 6 4 7 6 5 4 2 0 2 3 4 6 7 8 8
17 12 12 6 5 9 10 8 9 9 11 13 13 15 19 21 22 17 11 13 18 21 20 20 18 11 10 17 22 20 16 10 6 3 2 3 2 3 5 7 11 12 9 8 5 4 6 4 2 4 4 2 3 5 2 3 6 14 16 16 19 22 21 19 16 17 19 18 15 14 14 13 8 3 4 7 5 4 3 3 2 1 3 4 5 6 6 8
Wind_Direction
15 14 12 12 13 14 14 13 13 13 13 12 11 12 13 14 14 14 13 8 3 2 1 7 23 103 144 137 123 113 100 88 67 58 59 27 357 353 347 347 350 357 8 13 3 353 323 261 282 327 271 199 216 163 177 252 3 308 296 303 288 337 66 329 344 22 5 14 9 20 44 41 40 34 357 318 136 85 66 55 64 75 66 59 54 46 45 41
12 12 11 10 11 12 11 11 11 11 11 10 9 9 10 12 12 11 9 4 360 358 359 3 16 90 156 148 132 127 122 122 73 60 45 4 355 344 337 342 346 356 9 23 12 359 354 356 340 328 305 219 169 168 208 156 166 279 333 310 309 26 21 327 358 3 1 13 2 10 19 24 53 29 332 44 84 68 59 49 62 73 65 59 50 45 44 41
10 10 9 9 9 10 9 9 10 10 10 9 8 7 8 9 9 8 7 3 358 356 358 2 10 50 169 169 156 144 175 244 52 54 14 347 344 336 335 340 352 358 3 15 358 340 329 322 302 303 319 284 183 138 215 184 169 358 38 289 332 28 349 353 358 349 11 17 4 356 340 2 66 44 300 85 89 66 58 54 59 66 62 63 52 45 44 41
7 7 7 7 7 8 7 7 7 9 9 8 7 6 7 7 6 5 5 3 359 357 1 6 7 24 175 189 192 198 284 283 359 31 342 338 338 341 343 349 2 2 2 355 323 305 285 281 277 280 311 281 168 138 187 148 25 359 118 191 111 331 285 45 340 346 27 21 353 312 318 10 40 56 3 57 94 73 64 71 73 73 66 65 58 47 43 42
5 5 5 5 6 6 6 5 5 6 7 7 6 5 5 4 4 3 5 5 1 360 5 17 21 47 140 188 196 196 296 297 36 354 336 339 343 351 356 3 6 5 6 348 316 299 282 278 271 239 230 266 197 163 145 103 40 296 216 97 79 329 290 50 321 9 41 10 323 315 10 5 309 86 56 55 90 84 79 86 82 83 79 73 65 52 44 40
3 3 3 3 4 4 4 3 3 4 5 6 5 4 3 1 1 1 4 6 4 3 8 29 45 81 113 155 177 187 281 25 20 347 338 344 355 4 8 9 8 11 6 348 336 327 317 310 294 292 283 274 276 119 112 118 137 252 209 97 66 335 311 23 316 37 53 348 318 346 27 312 216 99 79 75 88 90 93 93 88 86 84 82 72 59 49 40
1 1 1 1 3 3 2 1 2 2 4 5 4 3 1 360 360 360 2 6 7 5 5 19 68 100 113 129 162 200 181 74 9 344 341 352 9 16 16 10 9 14 9 359 359 352 346 334 327 360 310 261 325 56 87 117 164 201 221 113 87 312 305 320 316 37 55 313 320 315 293 255 174 115 99 95 94 94 94 93 94 90 82 79 73 64 55 47
359 359 359 360 0 1 1 0 1 1 2 3 3 2 359 358 358 359 2 5 7 4 360 353 182 145 129 154 221 227 114 45 347 343 349 2 20 22 18 11 8 9 4 9 9 349 338 344 359 6 297 305 19 297 18 19 212 196 176 125 136 231 257 281 280 13 256 233 334 306 253 206 147 120 112 109 106 103 102 100 98 96 86 77 70 67 60 50
357 357 357 358 358 359 359 359 360 359 0 0 1 0 358 357 354 354 359 2 4 1 354 345 241 220 261 279 284 274 113 14 347 353 358 5 19 23 18 13 10 9 358 7 15 355 342 360 11 17 323 343 347 305 22 42 229 198 74 164 209 204 190 231 241 191 205 222 3 332 282 133 127 116 113 119 117 114 111 108 105 103 94 81 71 64 59 53
355 355 355 356 355 357 357 358 358 358 358 357 358 358 356 354 350 348 353 357 2 360 351 349 299 235 264 280 282 277 92 48 357 359 3 5 10 17 20 16 11 13 0 2 27 11 360 2 358 12 346 302 283 298 293 117 213 225 331 288 264 242 191 201 226 184 173 299 6 351 327 157 156 147 126 126 124 123 116 111 110 101 94 87 79 66 57 55
353 352 352 353 353 355 355 356 357 357 357 355 354 355 354 350 346 343 347 353 359 357 348 338 347 294 289 284 281 280 71 39 356 4 9 5 7 13 18 16 11 13 1 1 45 27 359 352 346 336 9 339 292 242 211 359 337 254 315 302 245 224 191 194 220 190 172 288 352 338 311 184 170 188 143 136 129 127 121 115 113 100 94 88 85 78 60 55
350 350 350 350 351 353 353 353 355 355 354 354 352 353 351 346 343 338 341 348 351 351 344 320 302 317 310 279 262 56 56 15 5 16 11 4 12 11 5 7 9 10 357 357 32 23 352 350 345 298 293 336 313 254 200 12 313 288 313 286 203 183 184 199 207 190 183 244 337 312 311 201 187 163 134 135 133 129 124 118 116 101 94 87 83 85 69 55
347 347 347 348 349 350 351 351 352 353 352 352 350 351 349 343 339 335 335 343 346 344 340 322 283 295 313 266 115 48 33 12 15 17 11 7 7 2 357 357 2 357 342 340 341 346 339 345 322 283 319 313 304 298 279 338 282 276 253 220 162 164 197 203 199 192 195 184 321 308 339 232 200 150 129 134 139 132 124 118 113 98 91 87 77 80 73 62
345 345 345 345 347 347 349 349 349 351 350 351 349 348 348 340 334 331 332 342 346 344 344 338 285 284 305 112 72 356 20 29 24 11 8 10 6 8 10 353 348 337 320 317 310 312 317 342 301 280 305 255 264 352 253 227 253 258 203 217 198 200 191 183 187 184 190 180 192 249 288 259 173 131 131 136 140 127 119 112 107 100 94 92 81 76 64 63
343 344 344 344 344 345 347 347 347 348 348 350 348 346 346 337 329 329 333 351 350 350 6 350 293 305 299 156 253 290 16 44 23 5 4 7 9 17 346 330 331 322 308 296 291 299 297 330 277 274 267 217 243 305 266 198 216 236 208 270 225 239 149 169 187 181 183 213 190 200 266 290 83 128 136 131 135 123 120 118 110 108 99 96 84 77 57 54
342 343 342 341 343 343 345 345 345 346 347 349 347 346 345 333 327 328 339 2 354 354 25 351 323 336 300 194 159 186 34 45 350 353 357 0 8 5 333 325 321 307 289 272 276 283 261 225 212 264 346 239 224 252 279 260 236 222 202 277 296 353 278 173 203 191 171 283 198 172 231 284 110 139 134 127 139 127 123 124 116 111 101 100 86 82 61 44
340 342 341 340 341 342 343 343 344 344 345 347 347 346 344 333 329 328 1 3 356 52 47 20 352 318 253 58 131 167 26 359 323 340 353 356 0 355 344 326 306 304 268 241 258 259 196 201 193 97 167 240 254 295 330 326 300 261 25 319 310 308 301 254 236 205 171 173 226 225 235 259 163 147 144 140 144 129 128 128 122 117 108 110 94 79 58 38
339 341 341 338 339 341 342 342 342 344 344 346 348 344 339 336 333 317 16 0 351 169 51 43 2 298 193 22 37 8 350 317 311 336 358 352 349 345 339 294 294 322 292 229 229 220 172 188 180 349 273 219 333 34 9 318 329 311 322 333 304 302 305 288 260 194 189 189 236 273 257 252 173 148 154 151 144 131 130 129 125 122 115 111 86 73 60 35
336 340 341 338 338 339 341 342 341 344 345 346 349 348 343 347 340 201 15 2 355 197 316 344 352 266 270 342 281 336 322 297 306 348 357 349 343 333 302 256 257 309 295 247 273 272 187 341 244 267 301 101 49 34 328 311 337 310 308 316 296 298 283 276 269 172 218 260 255 259 261 256 204 158 160 155 141 131 130 130 128 123 115 104 86 82 71 45
335 339 339 339 337 337 341 341 340 346 349 352 355 358 358 358 355 203 355 356 40 83 321 280 294 256 272 332 319 331 315 270 263 84 359 350 337 326 283 232 218 198 294 337 317 314 74 333 288 276 18 52 35 8 319 312 316 293 289 273 262 266 262 269 272 146 132 313 267 275 279 271 260 182 164 156 138 135 139 141 136 127 122 110 101 107 129 175
333 335 337 339 338 337 341 340 342 348 353 3 12 19 32 12 360 303 338 321 210 115 262 276 322 259 266 304 320 336 322 233 216 54 6 354 327 327 15 308 311 318 326 320 295 252 81 296 300 54 43 24 7 324 279 272 271 265 259 258 256 255 259 274 280 137 121 107 260 279 271 263 266 193 157 155 149 152 152 144 138 132 127 116 117 135 157 132
329 331 335 338 338 338 340 341 343 347 355 14 33 54 86 75 164 212 304 296 265 181 199 244 265 240 230 204 290 329 278 238 152 58 2 354 331 357 356 337 348 329 312 309 300 14 348 277 80 66 41 327 259 211 223 233 246 256 249 253 254 251 281 297 293 124 104 355 259 269 263 262 270 179 155 161 155 147 139 131 130 128 123 125 133 131 90 51
325 329 331 335 340 338 339 343 344 352 4 25 49 64 90 137 179 174 186 290 288 197 180 212 233 212 166 173 281 313 269 265 136 79 354 353 357 103 341 329 338 314 309 335 23 4 299 265 90 75 79 335 280 224 229 238 236 238 239 250 256 267 6 280 283 29 327 302 270 275 270 265 270 152 150 151 131 118 116 114 115 120 125 141 146 122 85 39
326 328 327 331 337 338 339 340 350 4 10 32 54 62 96 172 159 128 174 268 278 217 137 168 273 298 143 152 311 298 277 318 63 44 4 357 350 136 137 1 331 295 317 35 13 293 270 279 19 29 173 287 302 277 258 258 260 256 257 266 267 307 347 274 306 328 312 289 265 288 288 256 188 160 161 130 120 128 133 133 131 137 147 158 148 110 82 41
327 327 326 330 331 338 339 339 9 12 9 31 32 37 63 170 154 103 20 267 258 288 13 130 210 288 140 142 248 319 319 345 52 34 19 22 12 8 6 44 262 273 335 13 319 280 266 261 70 332 261 231 284 278 259 181 265 279 285 33 14 353 327 302 311 318 311 281 222 54 317 270 162 163 171 138 149 161 158 163 154 150 159 157 122 82 59 22
324 329 330 333 328 333 338 350 17 3 16 60 351 355 25 166 164 125 36 274 256 264 72 158 187 189 165 162 186 359 296 257 79 51 52 70 83 23 338 262 186 266 334 346 296 274 248 152 107 126 293 312 277 271 260 134 171 274 230 76 40 327 289 280 288 296 277 262 255 76 303 279 189 178 177 161 173 173 170 173 153 154 160 134 100 81 60 342
318 336 337 340 338 341 348 13 2 357 35 325 327 341 5 150 161 161 50 306 258 172 124 293 283 174 158 153 186 160 255 173 106 79 97 82 106 135 255 279 249 249 111 40 304 256 182 118 106 192 213 261 264 266 266 120 113 241 208 124 50 274 266 259 260 254 247 272 275 235 227 261 266 220 179 167 173 177 178 172 152 162 153 114 102 92 61 313
307 341 344 351 353 6 37 3 347 3 278 295 321 339 16 134 155 161 34 315 261 131 129 237 130 165 159 142 213 244 233 150 141 327 113 118 137 127 243 270 285 287 121 122 269 258 152 153 175 179 195 234 226 204 194 115 121 207 202 209 226 243 250 247 249 247 251 276 271 223 195 250 265 218 157 162 173 185 183 171 163 158 130 114 109 90 12 294
294 342 351 358 6 29 48 21 338 274 286 315 333 349 92 123 173 37 60 291 237 88 29 136 122 160 166 175 207 219 221 169 173 300 147 228 258 147 248 270 316 292 263 199 236 263 155 137 139 134 177 222 175 141 149 139 190 277 319 280 246 241 239 235 234 243 254 259 263 243 187 222 271 167 146 169 184 191 183 166 160 143 124 123 110 86 286 285
284 333 360 4 23 41 36 27 218 286 314 335 9 92 107 121 270 44 217 253 63 55 28 113 136 160 191 232 204 169 198 205 129 127 208 253 41 205 228 69 35 285 269 242 249 258 148 82 65 146 202 174 125 138 162 172 245 348 334 291 275 256 238 225 214 223 264 252 263 261 197 207 262 179 162 189 186 173 172 158 147 135 127 131 124 195 294 340
280 315 4 9 35 69 56 169 214 317 325 348 70 110 109 244 212 195 227 238 42 71 134 121 287 147 173 254 209 158 210 238 151 149 220 137 138 225 248 31 38 330 287 269 267 274 162 178 221 193 311 95 100 181 192 183 216 37 327 293 315 297 253 243 208 169 240 248 272 8 29 220 247 227 165 179 129 140 155 149 138 135 137 139 134 354 5 5
283 301 348 8 27 169 187 202 242 301 311 42 93 135 291 288 213 223 228 59 41 209 165 115 270 152 111 65 273 229 250 277 200 172 185 120 189 228 203 200 140 346 283 256 309 316 245 224 165 73 346 140 121 51 248 232 191 170 246 285 311 327 312 286 303 162 230 244 173 75 36 295 242 257 191 170 143 125 129 126 129 135 136 124 66 25 11 359
279 296 313 335 342 267 240 229 251 282 310 92 120 218 208 218 221 217 214 223 324 205 113 72 78 94 97 86 252 217 66 256 212 174 104 101 230 267 242 210 151 200 261 328 347 307 287 304 112 111 324 196 164 161 206 245 171 189 213 194 196 324 316 278 270 243 250 242 183 107 23 292 243 267 206 162 141 122 118 118 126 124 114 100 67 46 5 7
276 291 298 306 310 282 255 244 244 241 116 98 154 201 182 220 243 239 221 218 210 200 94 85 101 104 137 221 232 154 105 248 192 117 63 122 164 265 258 237 175 174 239 344 321 273 271 298 201 173 183 163 181 175 152 139 159 210 180 131 170 157 232 259 255 244 274 277 245 226 353 248 217 286 156 131 121 120 123 127 125 117 118 126 128 82 24 15
270 279 290 296 298 280 248 237 228 184 144 134 193 201 197 220 237 245 245 245 136 174 121 101 134 171 227 230 225 172 171 256 143 103 189 179 190 226 216 207 188 167 144 181 266 219 231 252 223 138 209 155 170 144 119 99 357 250 90 85 199 187 218 262 276 200 275 301 273 213 223 218 154 80 109 117 125 131 138 142 127 116 115 107 78 49 26 10
266 280 290 287 279 268 236 230 215 168 152 159 203 211 213 223 216 214 229 182 112 136 112 152 185 207 252 225 213 223 102 325 99 90 219 206 214 226 212 180 177 181 174 174 255 260 245 260 237 18 323 109 84 34 121 103 118 156 74 155 230 201 149 260 298 359 64 297 273 192 249 264 124 137 139 132 145 151 155 148 124 112 87 74 62 37 19 6
246 265 277 262 251 249 235 227 197 157 152 185 211 219 222 226 232 242 206 103 355 86 96 275 199 183 245 255 200 199 153 359 177 167 234 217 225 216 192 150 162 191 190 154 239 220 211 268 235 181 295 71 6 356 320 277 122 128 171 197 208 21 84 134 290 360 39 271 264 180 234 245 176 217 179 155 172 172 156 130 118 117 95 82 47 23 11 1
220 237 266 247 240 245 240 215 173 147 143 207 226 236 235 231 237 243 147 114 51 90 132 232 207 174 211 250 229 164 150 163 163 179 233 220 229 184 162 164 152 209 175 92 111 302 57 275 257 228 329 349 20 349 297 254 112 119 207 210 94 210 233 139 160 237 243 266 274 246 246 232 195 201 179 181 192 171 127 98 97 74 64 55 17 14 358 345
183 212 258 205 213 232 221 186 156 143 191 207 221 233 227 233 242 239 191 152 153 141 179 222 217 209 209 208 233 140 158 189 181 187 222 198 223 168 156 174 161 114 39 85 158 274 59 239 258 322 327 66 85 210 206 201 98 70 10 325 97 176 209 169 158 182 231 265 282 285 282 253 192 189 167 174 173 137 112 94 93 25 39 49 21 358 338 332
177 238 216 174 193 209 184 161 150 179 210 213 222 231 228 236 240 230 216 201 186 176 200 212 202 223 237 225 238 206 188 209 207 212 218 190 225 212 178 172 147 134 43 44 101 36 76 215 242 319 341 256 183 201 197 193 176 149 180 214 204 182 162 220 225 155 202 252 269 286 284 266 166 160 130 133 131 129 128 127 150 160 90 67 24 339 331 331
178 245 205 178 185 174 155 153 185 196 211 226 229 235 240 245 243 230 211 199 208 208 209 226 218 224 246 245 239 217 200 225 217 217 235 211 211 233 200 155 142 145 95 47 253 197 158 210 233 245 242 229 226 217 203 189 177 185 200 200 202 192 157 229 253 185 173 241 227 258 274 267 201 211 122 117 133 137 130 149 189 158 101 69 355 342 333 329
193 225 178 172 175 162 157 192 204 185 221 227 227 235 236 243 243 229 203 194 213 219 216 238 234 232 245 240 232 210 189 246 234 211 232 214 195 217 208 138 140 149 134 117 219 217 145 106 250 254 253 245 243 309 90 200 191 221 235 210 194 190 175 206 242 222 160 240 206 240 271 271 168 167 145 130 149 145 155 188 179 125 99 72 330 342 331 324
207 203 138 163 174 169 180 230 192 198 232 223 231 240 230 236 234 212 199 195 199 195 211 233 223 225 235 220 221 220 183 246 249 226 235 229 202 240 238 141 143 145 133 144 181 109 68 90 234 269 284 275 240 28 7 295 43 266 248 215 195 203 186 197 230 204 162 236 211 212 256 261 150 147 146 142 155 159 189 193 140 119 125 123 328 334 332 328
208 203 133 172 185 187 205 216 199 214 227 219 236 238 231 235 224 208 206 197 183 180 211 234 218 218 225 192 202 216 180 216 255 228 215 221 218 307 327 139 154 161 157 206 173 160 192 169 149 288 301 285 269 302 283 223 190 232 229 195 209 218 161 117 217 119 245 243 226 225 250 248 208 146 146 159 182 198 216 193 118 118 123 62 356 341 338 332
190 206 168 175 192 203 222 223 216 226 220 219 234 234 234 240 223 217 221 212 202 198 215 242 220 205 208 173 197 225 201 210 244 220 177 197 225 323 346 36 130 158 142 4 158 179 196 184 166 210 265 269 271 279 265 205 185 223 220 199 208 207 191 203 220 196 239 244 224 224 247 253 239 209 205 222 226 241 257 270 87 93 70 34 4 349 342 332
182 205 162 152 191 218 248 279 247 242 225 221 236 232 227 234 228 214 217 224 225 216 225 244 213 190 199 179 206 239 227 214 224 229 201 190 189 298 322 20 45 101 120 70 29 98 131 228 216 219 239 250 260 274 246 174 186 202 209 206 208 209 208 210 218 224 233 254 245 235 240 261 265 260 267 274 273 275 278 304 54 60 41 25 6 348 335 329
202 209 178 155 176 216 232 237 225 234 231 222 233 237 222 228 231 206 199 213 219 219 231 237 209 194 194 184 208 239 237 217 215 235 240 220 157 359 275 109 96 114 122 87 13 91 120 242 226 222 240 249 258 269 189 180 217 220 209 206 207 211 211 209 219 229 222 239 256 248 234 252 262 263 265 266 269 279 284 344 64 44 14 9 4 343 329 328
208 224 179 170 184 201 202 211 210 218 231 227 229 243 236 230 230 213 197 202 209 209 219 230 219 210 205 201 209 234 238 219 212 232 237 220 165 145 173 147 168 160 125 90 328 105 137 249 226 216 243 252 256 259 236 221 240 235 220 214 217 219 216 218 228 232 224 231 252 262 258 254 259 264 266 263 271 286 290 86 92 28 16 12 359 340 327 326
202 275 197 181 202 206 191 193 196 208 223 223 225 237 238 234 235 229 198 179 220 214 206 227 230 215 210 213 213 230 237 221 223 234 218 196 195 171 172 233 195 166 140 132 228 116 151 251 228 216 252 257 249 252 254 255 260 256 239 224 228 234 229 230 237 234 231 241 254 263 265 264 264 264 269 275 281 276 232 126 127 351 29 13 349 328 320 320
193 213 195 188 221 220 195 183 187 203 218 217 225 232 226 229 236 233 203 199 223 210 191 225 236 221 210 215 215 229 233 218 230 241 195 173 211 190 186 211 154 149 173 154 156 213 209 230 177 193 256 262 239 236 250 257 262 267 259 238 232 242 242 240 241 236 233 243 251 255 261 265 266 262 268 276 266 227 162 158 274 48 48 5 331 316 316 313
207 209 200 203 231 214 206 192 186 198 216 214 221 223 217 225 229 227 219 220 225 217 193 215 232 229 215 219 221 230 234 225 233 243 203 185 210 196 192 189 147 152 180 172 170 202 207 220 114 145 247 259 208 206 237 266 279 273 266 249 232 234 240 239 236 232 229 238 248 251 252 258 265 266 261 256 232 183 162 172 16 51 33 343 315 308 311 310
206 213 207 219 245 213 210 208 190 201 224 215 207 213 219 224 221 217 226 230 226 227 221 218 225 227 225 231 231 231 234 224 223 253 179 172 187 160 175 171 157 158 167 175 184 185 188 204 158 157 224 279 113 148 175 357 304 273 261 236 220 226 236 241 242 235 229 231 240 244 243 253 272 283 246 243 218 176 151 127 111 32 336 311 296 294 302 313